CES2731 ZSWX-ZBAD

Flight info

Callsign CES2731
Flight time 1h 29m
Altitude 34100
Route PIM81D PIMOL A593 DALIM W157 BEKDO/K0837S1010 W157 AVBOX AVBOX9M
Aircraft A320/M-SDE2E3FGILRWXY/LB2

Departure

Time 2026-05-06 04:17
Airport Sunan Shuofang International Airport (ZSWX)

Arrival

Time 2026-05-06 05:47
Airport Beijing Daxing International Airport (ZBAD)
Time Latitude Longitude Altitude Speed Heading
2026-05-06 04:03 31.50861 120.43109 23 ft 0 kts 290°
2026-05-06 04:10 31.50858 120.43118 31 ft 4 kts 291°
2026-05-06 04:10 31.50847 120.43147 31 ft 4 kts 299°
2026-05-06 04:10 31.50832 120.43172 31 ft 4 kts 321°
2026-05-06 04:11 31.50812 120.43182 28 ft 2 kts 18°
2026-05-06 04:11 31.50810 120.43182 27 ft 0 kts 20°
2026-05-06 04:13 31.50812 120.43183 28 ft 2 kts 20°
2026-05-06 04:13 31.50837 120.43194 26 ft 5 kts 20°
2026-05-06 04:13 31.50887 120.43215 29 ft 10 kts 20°
2026-05-06 04:14 31.50955 120.43244 30 ft 10 kts 20°
2026-05-06 04:14 31.50969 120.43290 28 ft 8 kts 116°
2026-05-06 04:14 31.50980 120.43342 26 ft 8 kts 39°
2026-05-06 04:14 31.51037 120.43368 26 ft 10 kts 20°
2026-05-06 04:15 31.51105 120.43398 27 ft 10 kts 20°
2026-05-06 04:15 31.51126 120.43449 27 ft 7 kts 118°
2026-05-06 04:15 31.51110 120.43513 27 ft 10 kts 109°
2026-05-06 04:15 31.51102 120.43539 25 ft 1 kts 110°
2026-05-06 04:16 31.51095 120.43562 28 ft 5 kts 110°
2026-05-06 04:16 31.51071 120.43604 24 ft 8 kts 137°
2026-05-06 04:16 31.51015 120.43611 24 ft 10 kts 201°
2026-05-06 04:16 31.50918 120.43569 24 ft 34 kts 201°
2026-05-06 04:17 31.50484 120.43382 28 ft 96 kts 200°
2026-05-06 04:17 31.49696 120.43043 26 ft 143 kts 200°
2026-05-06 04:17 31.48660 120.42588 216 ft 166 kts 199°
2026-05-06 04:17 31.47576 120.42122 861 ft 167 kts 198°
2026-05-06 04:18 31.46467 120.41652 1388 ft 177 kts 198°
2026-05-06 04:18 31.45222 120.41127 1629 ft 202 kts 198°
2026-05-06 04:18 31.43859 120.40552 2052 ft 219 kts 199°
2026-05-06 04:18 31.42450 120.39945 2965 ft 210 kts 199°
2026-05-06 04:19 31.41097 120.39337 3818 ft 208 kts 205°
2026-05-06 04:19 31.40070 120.38152 4507 ft 216 kts 246°
2026-05-06 04:19 31.39972 120.36397 5122 ft 225 kts 288°
2026-05-06 04:19 31.40913 120.34949 5774 ft 231 kts 329°
2026-05-06 04:20 31.42408 120.34229 6430 ft 235 kts 342°
2026-05-06 04:20 31.43976 120.33694 7150 ft 235 kts 344°
2026-05-06 04:20 31.45539 120.33204 7852 ft 236 kts 343°
2026-05-06 04:20 31.47133 120.32705 8580 ft 238 kts 342°
2026-05-06 04:21 31.48734 120.32188 9311 ft 240 kts 342°
2026-05-06 04:21 31.50343 120.31654 10016 ft 241 kts 341°
2026-05-06 04:21 31.51997 120.31267 10641 ft 246 kts 354°
2026-05-06 04:21 31.53788 120.31363 10900 ft 270 kts
2026-05-06 04:22 31.55738 120.31562 11095 ft 293 kts
2026-05-06 04:22 31.57817 120.31663 11248 ft 313 kts 352°
2026-05-06 04:22 31.59969 120.30987 11377 ft 330 kts 332°
2026-05-06 04:23 31.63937 120.27834 12047 ft 353 kts 322°
2026-05-06 04:23 31.65944 120.26153 12671 ft 356 kts 323°
2026-05-06 04:23 31.67969 120.24463 13247 ft 360 kts 323°
2026-05-06 04:23 31.70020 120.22756 13805 ft 363 kts 323°
2026-05-06 04:24 31.72088 120.21035 14364 ft 365 kts 323°
2026-05-06 04:24 31.74142 120.19325 14876 ft 369 kts 323°
2026-05-06 04:24 31.76240 120.17567 15358 ft 372 kts 323°
2026-05-06 04:24 31.78348 120.15782 15889 ft 374 kts 323°
2026-05-06 04:25 31.80465 120.13979 16395 ft 377 kts 322°
2026-05-06 04:25 31.82594 120.12157 16914 ft 380 kts 322°
2026-05-06 04:25 31.84741 120.10322 17423 ft 382 kts 322°
2026-05-06 04:25 31.86904 120.08475 17954 ft 385 kts 322°
2026-05-06 04:26 31.89077 120.06616 18437 ft 388 kts 322°
2026-05-06 04:26 31.91236 120.04767 18872 ft 390 kts 322°
2026-05-06 04:26 31.93437 120.02884 19336 ft 392 kts 322°
2026-05-06 04:26 31.95651 120.00996 19823 ft 394 kts 322°
2026-05-06 04:27 31.97873 119.99099 20315 ft 395 kts 322°
2026-05-06 04:27 32.00105 119.97191 20781 ft 397 kts 322°
2026-05-06 04:27 32.02344 119.95277 21229 ft 399 kts 322°
2026-05-06 04:27 32.04593 119.93355 21681 ft 400 kts 322°
2026-05-06 04:28 32.06848 119.91424 22114 ft 402 kts 322°
2026-05-06 04:28 32.09114 119.89482 22549 ft 403 kts 322°
2026-05-06 04:28 32.11386 119.87530 22983 ft 405 kts 322°
2026-05-06 04:28 32.13639 119.85594 23404 ft 407 kts 322°
2026-05-06 04:29 32.15929 119.83625 23776 ft 408 kts 322°
2026-05-06 04:29 32.18232 119.81645 24129 ft 410 kts 322°
2026-05-06 04:29 32.20541 119.79662 24465 ft 412 kts 322°
2026-05-06 04:29 32.22857 119.77669 24824 ft 413 kts 322°
2026-05-06 04:30 32.25185 119.75663 25170 ft 414 kts 322°
2026-05-06 04:30 32.27518 119.73662 25517 ft 415 kts 322°
2026-05-06 04:30 32.29874 119.71658 25862 ft 417 kts 322°
2026-05-06 04:30 32.32200 119.69681 26211 ft 418 kts 322°
2026-05-06 04:31 32.34567 119.67669 26576 ft 420 kts 322°
2026-05-06 04:31 32.36939 119.65647 26934 ft 421 kts 322°
2026-05-06 04:31 32.39319 119.63615 27289 ft 423 kts 322°
2026-05-06 04:31 32.41705 119.61573 27637 ft 424 kts 322°
2026-05-06 04:32 32.44099 119.59524 27981 ft 425 kts 322°
2026-05-06 04:32 32.46491 119.57474 28452 ft 423 kts 322°
2026-05-06 04:32 32.48870 119.55431 28967 ft 421 kts 322°
2026-05-06 04:32 32.51232 119.53397 29472 ft 419 kts 322°
2026-05-06 04:33 32.53553 119.51392 29945 ft 418 kts 321°
2026-05-06 04:33 32.55893 119.49366 30375 ft 416 kts 321°
2026-05-06 04:33 32.58226 119.47343 30796 ft 414 kts 321°
2026-05-06 04:33 32.60547 119.45332 31228 ft 412 kts 321°
2026-05-06 04:34 32.62857 119.43329 31653 ft 410 kts 322°
2026-05-06 04:34 32.65156 119.41336 32076 ft 408 kts 322°
2026-05-06 04:34 32.67446 119.39353 32508 ft 406 kts 322°
2026-05-06 04:34 32.69725 119.37377 32933 ft 405 kts 322°
2026-05-06 04:35 32.71991 119.35410 33366 ft 403 kts 322°
2026-05-06 04:35 32.74249 119.33449 33809 ft 401 kts 322°
2026-05-06 04:35 32.76471 119.31514 33998 ft 401 kts 322°
2026-05-06 04:36 32.81032 119.27542 34035 ft 411 kts 322°
2026-05-06 04:36 32.85666 119.23514 34037 ft 413 kts 322°
2026-05-06 04:37 32.90304 119.19463 34033 ft 414 kts 322°
2026-05-06 04:37 32.94914 119.15436 34039 ft 414 kts 322°
2026-05-06 04:38 32.99574 119.11414 34029 ft 414 kts 322°
2026-05-06 04:38 33.04255 119.07400 34027 ft 414 kts 322°
2026-05-06 04:39 33.08936 119.03373 34037 ft 414 kts 322°
2026-05-06 04:39 33.13569 118.99367 34021 ft 414 kts 322°
2026-05-06 04:40 33.18232 118.95325 34029 ft 414 kts 322°
2026-05-06 04:40 33.22898 118.91272 34020 ft 415 kts 322°
2026-05-06 04:41 33.27568 118.87193 34020 ft 416 kts 322°
2026-05-06 04:41 33.32210 118.83137 34018 ft 416 kts 322°
2026-05-06 04:42 33.36903 118.79074 34017 ft 417 kts 322°
2026-05-06 04:42 33.41603 118.75011 34011 ft 417 kts 322°
2026-05-06 04:43 33.46298 118.70935 34021 ft 417 kts 322°
2026-05-06 04:43 33.50997 118.66854 34021 ft 417 kts 322°
2026-05-06 04:44 33.55671 118.62806 34017 ft 418 kts 322°
2026-05-06 04:44 33.60387 118.58715 34010 ft 418 kts 322°
2026-05-06 04:45 33.65097 118.54618 34004 ft 418 kts 322°
2026-05-06 04:45 33.69776 118.50543 34006 ft 418 kts 322°
2026-05-06 04:46 33.74484 118.46433 34007 ft 418 kts 322°
2026-05-06 04:46 33.79199 118.42319 34007 ft 419 kts 322°
2026-05-06 04:47 33.83910 118.38203 34005 ft 418 kts 322°
2026-05-06 04:47 33.88586 118.34110 34004 ft 419 kts 322°
2026-05-06 04:48 33.93294 118.29974 33994 ft 419 kts 322°
2026-05-06 04:48 33.98006 118.25832 33992 ft 419 kts 322°
2026-05-06 04:49 34.02733 118.21715 33991 ft 419 kts 322°
2026-05-06 04:49 34.07469 118.17601 34000 ft 419 kts 322°
2026-05-06 04:50 34.12173 118.13508 33994 ft 419 kts 322°
2026-05-06 04:50 34.16906 118.09389 33992 ft 419 kts 322°
2026-05-06 04:51 34.21636 118.05268 33987 ft 419 kts 321°
2026-05-06 04:51 34.26386 118.01166 33979 ft 421 kts 324°
2026-05-06 04:52 34.31796 117.98413 33975 ft 430 kts 339°
2026-05-06 04:52 34.37538 117.96385 33989 ft 430 kts 339°
2026-05-06 04:53 34.43277 117.94342 33984 ft 430 kts 339°
2026-05-06 04:53 34.49011 117.92282 33981 ft 430 kts 339°
2026-05-06 04:54 34.54711 117.90236 33975 ft 430 kts 339°
2026-05-06 04:54 34.60450 117.88180 33986 ft 430 kts 338°
2026-05-06 04:55 34.66189 117.86121 33980 ft 430 kts 338°
2026-05-06 04:55 34.71927 117.84061 33973 ft 430 kts 338°
2026-05-06 04:56 34.77664 117.81992 33975 ft 430 kts 338°
2026-05-06 04:56 34.83365 117.79939 33996 ft 430 kts 338°
2026-05-06 04:57 34.89100 117.77841 33985 ft 430 kts 338°
2026-05-06 04:57 34.94834 117.75734 33982 ft 430 kts 338°
2026-05-06 04:58 35.00527 117.73647 33978 ft 430 kts 338°
2026-05-06 04:58 35.06256 117.71540 33973 ft 430 kts 338°
2026-05-06 04:59 35.11992 117.69442 33977 ft 430 kts 338°
2026-05-06 04:59 35.17731 117.67344 33970 ft 430 kts 338°
2026-05-06 05:00 35.23469 117.65242 33955 ft 430 kts 338°
2026-05-06 05:00 35.29167 117.63137 33955 ft 430 kts 338°
2026-05-06 05:01 35.34903 117.61016 33974 ft 431 kts 337°
2026-05-06 05:01 35.40642 117.58896 33964 ft 431 kts 337°
2026-05-06 05:02 35.46383 117.56773 33957 ft 431 kts 337°
2026-05-06 05:02 35.52083 117.54662 33953 ft 431 kts 337°
2026-05-06 05:03 35.57826 117.52542 33943 ft 431 kts 337°
2026-05-06 05:03 35.63567 117.50412 33934 ft 431 kts 337°
2026-05-06 05:04 35.69309 117.48275 33934 ft 431 kts 337°
2026-05-06 05:04 35.75052 117.46136 33926 ft 431 kts 337°
2026-05-06 05:05 35.80765 117.44008 33915 ft 432 kts 337°
2026-05-06 05:05 35.86532 117.41858 33923 ft 433 kts 336°
2026-05-06 05:06 35.92298 117.39697 33912 ft 433 kts 336°
2026-05-06 05:06 35.98067 117.37531 33911 ft 433 kts 336°
2026-05-06 05:07 36.03804 117.35389 33912 ft 434 kts 337°
2026-05-06 05:07 36.09593 117.33249 33926 ft 434 kts 336°
2026-05-06 05:08 36.15387 117.31113 33916 ft 434 kts 336°
2026-05-06 05:08 36.21142 117.28990 33912 ft 434 kts 336°
2026-05-06 05:09 36.26932 117.26841 33908 ft 434 kts 336°
2026-05-06 05:09 36.32724 117.24687 33923 ft 435 kts 336°
2026-05-06 05:10 36.38519 117.22529 33908 ft 435 kts 336°
2026-05-06 05:10 36.44196 117.20065 33898 ft 430 kts 330°
2026-05-06 05:11 36.49677 117.17213 33895 ft 430 kts 330°
2026-05-06 05:11 36.55197 117.14344 33892 ft 430 kts 330°
2026-05-06 05:12 36.60716 117.11473 33897 ft 430 kts 330°
2026-05-06 05:12 36.66236 117.08594 33876 ft 430 kts 330°
2026-05-06 05:13 36.71722 117.05731 33871 ft 431 kts 330°
2026-05-06 05:13 36.77252 117.02840 33871 ft 431 kts 330°
2026-05-06 05:14 36.82775 116.99939 33882 ft 431 kts 329°
2026-05-06 05:14 36.88301 116.97036 33867 ft 431 kts 329°
2026-05-06 05:15 36.93804 116.94142 33856 ft 432 kts 329°
2026-05-06 05:15 36.99339 116.91225 33856 ft 432 kts 329°
2026-05-06 05:16 37.04874 116.88304 33862 ft 432 kts 329°
2026-05-06 05:16 37.10413 116.85385 33876 ft 432 kts 329°
2026-05-06 05:17 37.15918 116.82473 33867 ft 432 kts 329°
2026-05-06 05:17 37.21468 116.79550 33866 ft 434 kts 332°
2026-05-06 05:18 37.27291 116.77284 33864 ft 439 kts 335°
2026-05-06 05:18 37.33134 116.75086 33887 ft 439 kts 335°
2026-05-06 05:19 37.38985 116.72885 33883 ft 439 kts 335°
2026-05-06 05:19 37.44789 116.70689 33878 ft 438 kts 335°
2026-05-06 05:20 37.50631 116.68472 33880 ft 438 kts 335°
2026-05-06 05:20 37.56472 116.66248 33893 ft 438 kts 334°
2026-05-06 05:21 37.62140 116.64092 33890 ft 438 kts 334°
2026-05-06 05:21 37.67822 116.61927 33889 ft 437 kts 334°
2026-05-06 05:21 37.70735 116.60812 33652 ft 439 kts 334°
2026-05-06 05:22 37.73652 116.59694 33123 ft 438 kts 334°
2026-05-06 05:22 37.76575 116.58577 32609 ft 440 kts 334°
2026-05-06 05:22 37.79471 116.57473 32139 ft 442 kts 334°
2026-05-06 05:22 37.82417 116.56346 31657 ft 444 kts 334°
2026-05-06 05:23 37.85378 116.55211 31175 ft 445 kts 334°
2026-05-06 05:23 37.88347 116.54074 30699 ft 447 kts 334°
2026-05-06 05:23 37.94315 116.51781 29753 ft 447 kts 333°
2026-05-06 05:24 37.97174 116.50385 29201 ft 434 kts 324°
2026-05-06 05:24 37.99737 116.48483 28664 ft 420 kts 316°
2026-05-06 05:24 38.02087 116.46317 28140 ft 417 kts 316°
2026-05-06 05:24 38.04403 116.44185 27624 ft 415 kts 316°
2026-05-06 05:25 38.06738 116.42046 27117 ft 413 kts 316°
2026-05-06 05:25 38.09061 116.39920 26620 ft 411 kts 316°
2026-05-06 05:25 38.11375 116.37804 26128 ft 409 kts 316°
2026-05-06 05:25 38.13680 116.35697 25644 ft 407 kts 316°
2026-05-06 05:26 38.15972 116.33597 25166 ft 406 kts 316°
2026-05-06 05:26 38.18255 116.31498 24703 ft 404 kts 316°
2026-05-06 05:26 38.20523 116.29408 24244 ft 402 kts 317°
2026-05-06 05:26 38.22902 116.27496 23787 ft 409 kts 327°
2026-05-06 05:27 38.25604 116.26258 23340 ft 419 kts 340°
2026-05-06 05:27 38.28481 116.25844 22832 ft 426 kts 354°
2026-05-06 05:27 38.31416 116.26298 22276 ft 424 kts
2026-05-06 05:27 38.34247 116.27273 21759 ft 418 kts
2026-05-06 05:28 38.37037 116.28248 21261 ft 414 kts
2026-05-06 05:28 38.39808 116.29209 20758 ft 411 kts
2026-05-06 05:28 38.42563 116.30155 20267 ft 408 kts
2026-05-06 05:28 38.45265 116.31077 19792 ft 406 kts 10°
2026-05-06 05:29 38.47983 116.32005 19334 ft 403 kts
2026-05-06 05:29 38.50612 116.32910 18874 ft 401 kts
2026-05-06 05:29 38.53296 116.33835 18416 ft 398 kts 10°
2026-05-06 05:29 38.55957 116.34762 17943 ft 395 kts 10°
2026-05-06 05:30 38.58602 116.35681 17412 ft 392 kts 11°
2026-05-06 05:30 38.61191 116.36581 16840 ft 380 kts 11°
2026-05-06 05:30 38.63684 116.37530 16283 ft 370 kts 17°
2026-05-06 05:30 38.65983 116.38945 15730 ft 364 kts 28°
2026-05-06 05:31 38.68038 116.40735 15215 ft 361 kts 32°
2026-05-06 05:31 38.70082 116.42581 14694 ft 359 kts 32°
2026-05-06 05:31 38.72114 116.44420 14174 ft 357 kts 32°
2026-05-06 05:31 38.74137 116.46254 13663 ft 355 kts 32°
2026-05-06 05:32 38.76145 116.48076 13103 ft 353 kts 32°
2026-05-06 05:32 38.78147 116.49889 12523 ft 351 kts 32°
2026-05-06 05:32 38.80124 116.51683 11977 ft 345 kts 32°
2026-05-06 05:32 38.82058 116.53444 11441 ft 337 kts 33°
2026-05-06 05:33 38.83950 116.55167 10957 ft 329 kts 32°
2026-05-06 05:33 38.85797 116.56848 10468 ft 322 kts 32°
2026-05-06 05:33 38.87587 116.58476 10017 ft 317 kts 32°
2026-05-06 05:33 38.89376 116.60104 9538 ft 313 kts 32°
2026-05-06 05:34 38.91143 116.61711 9022 ft 309 kts 32°
2026-05-06 05:34 38.92894 116.63301 8513 ft 307 kts 33°
2026-05-06 05:34 38.94622 116.64872 8013 ft 301 kts 32°
2026-05-06 05:34 38.96368 116.66288 7523 ft 292 kts 21°
2026-05-06 05:35 38.98297 116.66896 7043 ft 281 kts 359°
2026-05-06 05:35 38.99570 116.66785 6727 ft 274 kts 346°
2026-05-06 05:35 39.01903 116.65694 6103 ft 266 kts 338°
2026-05-06 05:35 39.03601 116.64788 5598 ft 262 kts 338°
2026-05-06 05:36 39.05262 116.63907 5228 ft 253 kts 338°
2026-05-06 05:36 39.06858 116.63058 4939 ft 243 kts 339°
2026-05-06 05:36 39.07882 116.62514 4757 ft 237 kts 339°
2026-05-06 05:36 39.09363 116.61692 4450 ft 227 kts 332°
2026-05-06 05:37 39.10587 116.60460 4148 ft 223 kts 315°
2026-05-06 05:37 39.11577 116.58129 3976 ft 230 kts 289°
2026-05-06 05:37 39.11737 116.56061 3983 ft 236 kts 270°
2026-05-06 05:37 39.11610 116.54645 3985 ft 236 kts 268°
2026-05-06 05:38 39.11394 116.51884 3982 ft 230 kts 278°
2026-05-06 05:38 39.11847 116.49991 3990 ft 220 kts 307°
2026-05-06 05:38 39.12513 116.49032 3949 ft 217 kts 323°
2026-05-06 05:38 39.13860 116.48263 3829 ft 213 kts 351°
2026-05-06 05:39 39.15340 116.48037 3710 ft 215 kts 353°
2026-05-06 05:39 39.17306 116.47747 3535 ft 215 kts 354°
2026-05-06 05:39 39.18792 116.47524 3416 ft 214 kts 354°
2026-05-06 05:39 39.20218 116.47307 3291 ft 197 kts 354°
2026-05-06 05:40 39.21105 116.47171 3204 ft 183 kts 354°
2026-05-06 05:40 39.22312 116.46988 3084 ft 172 kts 354°
2026-05-06 05:40 39.23483 116.46810 3014 ft 169 kts 354°
2026-05-06 05:40 39.24643 116.46632 2994 ft 167 kts 354°
2026-05-06 05:41 39.25798 116.46465 2996 ft 167 kts 354°
2026-05-06 05:41 39.26964 116.46289 2993 ft 170 kts 354°
2026-05-06 05:41 39.28141 116.46108 2991 ft 170 kts 355°
2026-05-06 05:41 39.29315 116.45925 2988 ft 170 kts 355°
2026-05-06 05:42 39.30491 116.45742 2999 ft 170 kts 355°
2026-05-06 05:42 39.31653 116.45561 2973 ft 171 kts 355°
2026-05-06 05:42 39.32806 116.45380 2834 ft 161 kts 355°
2026-05-06 05:42 39.33885 116.45210 2647 ft 154 kts 355°
2026-05-06 05:43 39.34942 116.45045 2451 ft 152 kts 356°
2026-05-06 05:43 39.35977 116.44882 2273 ft 144 kts 357°
2026-05-06 05:43 39.36958 116.44729 2063 ft 139 kts 357°
2026-05-06 05:43 39.37917 116.44578 1914 ft 137 kts 359°
2026-05-06 05:44 39.38849 116.44433 1739 ft 137 kts 358°
2026-05-06 05:44 39.39788 116.44285 1555 ft 135 kts 358°
2026-05-06 05:44 39.40724 116.44139 1384 ft 135 kts 358°
2026-05-06 05:44 39.41656 116.43993 1211 ft 135 kts 356°
2026-05-06 05:45 39.42592 116.43846 1028 ft 136 kts 355°
2026-05-06 05:45 39.43529 116.43699 850 ft 136 kts 354°
2026-05-06 05:45 39.44467 116.43551 679 ft 135 kts 358°
2026-05-06 05:45 39.45402 116.43400 467 ft 134 kts 356°
2026-05-06 05:46 39.46326 116.43261 276 ft 135 kts 356°
2026-05-06 05:46 39.47261 116.43116 124 ft 135 kts 356°
2026-05-06 05:46 39.48099 116.42992 99 ft 105 kts 353°
2026-05-06 05:46 39.48695 116.42898 96 ft 65 kts 353°
2026-05-06 05:47 39.48978 116.42852 94 ft 23 kts 350°
2026-05-06 05:47 39.49127 116.42787 96 ft 23 kts 335°
2026-05-06 05:47 39.49245 116.42690 93 ft 21 kts 326°
2026-05-06 05:47 39.49374 116.42578 89 ft 22 kts 326°
2026-05-06 05:48 39.49479 116.42488 87 ft 19 kts 328°
2026-05-06 05:48 39.49571 116.42410 89 ft 16 kts 320°
2026-05-06 05:48 39.49598 116.42306 90 ft 12 kts 315°
2026-05-06 05:48 39.49686 116.42287 85 ft 14 kts 353°
2026-05-06 05:49 39.49792 116.42270 85 ft 17 kts 353°
2026-05-06 05:49 39.49915 116.42251 88 ft 19 kts 353°
2026-05-06 05:49 39.50041 116.42231 89 ft 17 kts 353°
2026-05-06 05:49 39.50148 116.42215 85 ft 15 kts 353°
2026-05-06 05:50 39.50258 116.42197 86 ft 17 kts 353°
2026-05-06 05:50 39.50373 116.42180 87 ft 18 kts 352°
2026-05-06 05:50 39.50506 116.42159 87 ft 20 kts 353°
2026-05-06 05:50 39.50654 116.42136 87 ft 22 kts 353°
2026-05-06 05:51 39.50815 116.42111 88 ft 24 kts 353°
2026-05-06 05:51 39.50971 116.42087 87 ft 23 kts 353°
2026-05-06 05:51 39.51075 116.42069 87 ft 10 kts 353°
2026-05-06 05:51 39.51090 116.42067 89 ft 0 kts 352°
2026-05-06 05:52 39.51097 116.42058 88 ft 3 kts 310°
2026-05-06 05:52 39.51100 116.42024 86 ft 5 kts 266°
2026-05-06 05:52 39.51095 116.41972 85 ft 7 kts 263°
2026-05-06 05:52 39.51088 116.41901 88 ft 9 kts 263°
2026-05-06 05:53 39.51081 116.41825 85 ft 9 kts 262°
2026-05-06 05:53 39.51079 116.41759 88 ft 5 kts 289°
2026-05-06 05:53 39.51107 116.41715 85 ft 7 kts 308°
2026-05-06 05:53 39.51155 116.41679 87 ft 9 kts 340°
2026-05-06 05:54 39.51194 116.41661 85 ft 1 kts 341°
2026-05-06 05:54 39.51197 116.41660 87 ft 0 kts 341°